TimePST,TemperatureF,Dew PointF,Humidity,Sea Level PressureIn,VisibilityMPH,Wind Direction,Wind SpeedMPH,Gust SpeedMPH,PrecipitationIn,Events,Conditions,WindDirDegrees,DateUTC
12:40 AM,43.0,39.0,86,30.39,7.0,NE,12.7,-,N/A,,Mostly Cloudy,50,2014-01-23 08:40:00
12:53 AM,42.1,39.0,89,30.40,7.0,ENE,12.7,-,N/A,,Scattered Clouds,60,2014-01-23 08:53:00
1:53 AM,42.1,39.0,89,30.40,7.0,ENE,13.8,-,N/A,,Partly Cloudy,60,2014-01-23 09:53:00
2:53 AM,42.1,37.9,85,30.39,6.0,ENE,12.7,23.0,N/A,,Clear,60,2014-01-23 10:53:00
3:53 AM,41.0,37.9,89,30.40,6.0,NE,11.5,-,N/A,,Clear,40,2014-01-23 11:53:00
4:53 AM,41.0,37.9,89,30.40,6.0,NE,11.5,-,N/A,,Clear,40,2014-01-23 12:53:00
5:53 AM,41.0,37.9,89,30.39,6.0,ENE,11.5,-,N/A,,Clear,60,2014-01-23 13:53:00
6:53 AM,41.0,37.9,89,30.40,6.0,NE,11.5,21.9,N/A,,Clear,40,2014-01-23 14:53:00
7:53 AM,41.0,37.9,89,30.39,5.0,ENE,17.3,25.3,N/A,,Clear,60,2014-01-23 15:53:00
8:53 AM,42.1,39.0,89,30.39,6.0,ENE,16.1,24.2,N/A,,Clear,60,2014-01-23 16:53:00
9:44 AM,44.1,39.0,82,30.38,1.8,NE,13.8,24.2,N/A,,Haze,50,2014-01-23 17:44:00
9:53 AM,44.1,39.9,85,30.39,4.0,NE,15.0,23.0,N/A,,Clear,50,2014-01-23 17:53:00
10:20 AM,46.0,39.9,79,30.38,2.0,ENE,12.7,-,N/A,,Haze,60,2014-01-23 18:20:00
10:30 AM,46.0,39.9,79,30.38,6.0,ENE,12.7,-,N/A,,Haze,60,2014-01-23 18:30:00
10:32 AM,46.0,39.9,79,30.38,1.8,ENE,13.8,-,N/A,,Haze,60,2014-01-23 18:32:00
10:53 AM,46.9,39.9,77,30.39,7.0,ENE,10.4,21.9,N/A,,Clear,60,2014-01-23 18:53:00
11:28 AM,48.0,41.0,77,30.37,1.5,East,15.0,-,N/A,,Haze,80,2014-01-23 19:28:00
11:43 AM,48.9,41.0,74,30.37,7.0,ENE,11.5,-,N/A,,Clear,60,2014-01-23 19:43:00
11:53 AM,50.0,39.9,68,30.38,7.0,ENE,12.7,-,N/A,,Clear,60,2014-01-23 19:53:00
12:53 PM,51.1,42.1,71,30.37,7.0,ENE,11.5,-,N/A,,Clear,60,2014-01-23 20:53:00
1:53 PM,54.0,41.0,62,30.35,7.0,ENE,9.2,-,N/A,,Clear,60,2014-01-23 21:53:00
2:53 PM,55.0,39.9,57,30.34,7.0,NE,13.8,-,N/A,,Clear,50,2014-01-23 22:53:00
3:53 PM,52.0,41.0,66,30.34,7.0,East,11.5,-,N/A,,Clear,80,2014-01-23 23:53:00
4:53 PM,50.0,39.9,68,30.34,7.0,ENE,12.7,-,N/A,,Clear,70,2014-01-24 00:53:00
5:53 PM,48.0,39.9,74,30.32,8.0,NE,12.7,-,N/A,,Clear,50,2014-01-24 01:53:00
6:53 PM,46.9,39.0,74,30.33,8.0,NE,15.0,-,N/A,,Clear,50,2014-01-24 02:53:00
7:53 PM,46.0,37.9,73,30.33,8.0,NE,17.3,24.2,N/A,,Clear,40,2014-01-24 03:53:00
8:53 PM,45.0,37.0,74,30.34,8.0,ENE,15.0,-,N/A,,Clear,70,2014-01-24 04:53:00
9:53 PM,46.0,37.0,71,30.35,8.0,ENE,11.5,-,N/A,,Clear,60,2014-01-24 05:53:00
10:53 PM,44.1,36.0,73,30.36,8.0,East,10.4,-,N/A,,Clear,80,2014-01-24 06:53:00
11:53 PM,42.1,37.0,82,30.37,7.0,East,13.8,-,N/A,,Clear,100,2014-01-24 07:53:00